Christmas Island, Christmas Island

4:17 AM +07 on March 29, 2017 (GMT +0700)
Christmas Island

Weather History for YPXM - May, 2013

Change the Weather History Date:

Sunday, May 5, 2013

  Actual Average Record
Temperature  
Mean Temperature 81 °F -  
Max Temperature 84 °F 79 °F 84 °F (2013)
Min Temperature 78 °F 73 °F 73 °F (1999)
Cooling Degree Days 16    
Growing Degree Days 31 (Base 50)    
Moisture  
Dew Point 77 °F    
Average Humidity 90    
Maximum Humidity 94    
Minimum Humidity 83    
Precipitation  
Precipitation 0.00 in - - ()
Sea Level Pressure  
Sea Level Pressure 29.84 in    
Wind  
Wind Speed 11 mph ()    
Max Wind Speed 15 mph    
Max Gust Speed -    
Visibility 6.2 miles    
Events      
Averages and records for this station are not official NWS values.
T = Trace of Precipitation, MM = Missing Value Source: Averaged Metar Reports

Daily Weather History Graph

Daily Weather History Graph

Search for Another Location

Airport or City:

Trip Planner

Search our weather history database for the weather conditions in past years. The results will help you decide how hot, cold, wet, or windy it might be!

Date:

Astronomy

May. 05, 2013 Rise Set
Actual Time 6:02 AM +07 5:45 PM +07
Civil Twilight 5:40 AM +07 6:06 PM +07
Nautical Twilight 5:15 AM +07 6:32 PM +07
Astronomical Twilight 4:50 AM +07 6:57 PM +07
Moon 1:57 AM +07 (5/5) 2:20 PM +07 (5/5)
Length of Visible Light 12h 26m
Length of Day
11h 42m
Waning Crescent, 22% of the Moon is Illuminated
May 5
Waning Crescent
May 10
New
May 18
First Quarter
May 25
Full
Jun 1
Last Quarter

Hourly Weather History & Observations

Time (+07) Temp. Heat Index Dew Point Humidity Pressure Visibility Wind Dir Wind Speed Gust Speed Precip Events Conditions
12:00 AM 79 °F - 76 °F 88% 29.84 in - ESE 12.7 mph - -   Overcast
12:00 AM 78.8 °F - 77.0 °F 94% 29.86 in 6.2 mi ESE 12.7 mph - N/A   Mostly Cloudy
1:00 AM 79 °F - 76 °F 89% 29.81 in - East 12.7 mph - -  
1:00 AM 78.8 °F - 77.0 °F 94% 29.86 in 6.2 mi East 12.7 mph - N/A   Mostly Cloudy
2:00 AM 78.8 °F - 77.0 °F 94% 29.83 in 6.2 mi ESE 15.0 mph - N/A   Mostly Cloudy
2:51 AM 78.8 °F - 75.2 °F 89% 29.83 in 6.2 mi East 11.5 mph - N/A   Scattered Clouds
3:00 AM 79 °F - 76 °F 90% 29.80 in - ESE 12.7 mph - -  
3:00 AM 78.8 °F - 77.0 °F 94% 29.83 in 6.2 mi ESE 12.7 mph - N/A   Mostly Cloudy
3:17 AM 78.8 °F - 75.2 °F 89% 29.83 in 6.2 mi ESE 11.5 mph - N/A   Mostly Cloudy
4:00 AM 79 °F - 76 °F 88% 29.80 in - East 9.2 mph - -  
4:00 AM 78.8 °F - 77.0 °F 94% 29.83 in 6.2 mi East 9.2 mph - N/A   Mostly Cloudy
4:12 AM 78.8 °F - 75.2 °F 89% 29.83 in 6.2 mi East 11.5 mph - N/A   Scattered Clouds
5:00 AM 78.8 °F - 77.0 °F 94% 29.83 in 6.2 mi East 10.4 mph - N/A   Scattered Clouds
5:09 AM 78.8 °F - 77.0 °F 94% 29.83 in 6.2 mi East 11.5 mph - N/A   Mostly Cloudy
6:00 AM 79 °F - 76 °F 90% 29.80 in - ESE 12.7 mph - -   Overcast
6:00 AM 78.8 °F - 77.0 °F 94% 29.83 in 6.2 mi ESE 12.7 mph - N/A   Mostly Cloudy
7:00 AM 80 °F - 77 °F 89% 29.82 in - ESE 12.7 mph - -  
7:00 AM 80.6 °F 87.1 °F 77.0 °F 89% 29.86 in 6.2 mi ESE 12.7 mph - N/A   Overcast
8:00 AM 80.6 °F 87.1 °F 77.0 °F 89% 29.86 in 6.2 mi East 13.8 mph - N/A   Mostly Cloudy
9:00 AM 82 °F - 78 °F 85% 29.84 in - East 12.7 mph - -  
9:00 AM 82.4 °F 92.4 °F 78.8 °F 89% 29.89 in 6.2 mi East 12.7 mph - N/A   Mostly Cloudy
10:00 AM 82 °F - 78 °F 86% 29.85 in - ESE 13.8 mph - -  
10:00 AM 82.4 °F 92.4 °F 78.8 °F 89% 29.89 in 6.2 mi ESE 13.8 mph - N/A   Mostly Cloudy
11:00 AM 82.4 °F 92.4 °F 78.8 °F 89% 29.86 in 6.2 mi East 12.7 mph - N/A   Mostly Cloudy
12:00 PM 83 °F - 79 °F 83% 29.83 in - East 11.5 mph - -   Overcast
12:00 PM 82.4 °F 92.4 °F 78.8 °F 89% 29.86 in 6.2 mi East 11.5 mph - N/A   Overcast
12:20 PM 84.2 °F 96.1 °F 78.8 °F 84% 29.86 in 6.2 mi East 15.0 mph - N/A   Scattered Clouds
1:00 PM 83 °F - 79 °F 83% 29.82 in - East 12.7 mph - -  
1:00 PM 82.4 °F 92.4 °F 78.8 °F 89% 29.86 in 6.2 mi East 12.7 mph - N/A   Scattered Clouds
2:00 PM 84.2 °F 96.1 °F 78.8 °F 84% 29.83 in 6.2 mi East 12.7 mph - N/A   Unknown
3:00 PM 83 °F - 79 °F 85% 29.80 in - East 11.5 mph - -  
3:00 PM 82.4 °F 92.4 °F 78.8 °F 89% 29.83 in 6.2 mi East 11.5 mph - N/A   Scattered Clouds
4:00 PM 82 °F - 79 °F 87% 29.79 in - East 11.5 mph - -  
4:00 PM 82.4 °F 92.4 °F 78.8 °F 89% 29.83 in 6.2 mi East 11.5 mph - N/A   Scattered Clouds
4:01 PM 82.4 °F 92.4 °F 78.8 °F 89% 29.83 in 6.2 mi East 11.5 mph - N/A   Scattered Clouds
5:00 PM 80.6 °F 87.1 °F 77.0 °F 89% 29.83 in 6.2 mi East 9.2 mph - N/A   Scattered Clouds
5:51 PM 80.6 °F 87.1 °F 77.0 °F 89% 29.83 in 6.2 mi East 9.2 mph - N/A   Mostly Cloudy
6:00 PM 80 °F - 77 °F 88% 29.81 in - East 10.4 mph - -  
6:00 PM 80.6 °F 87.1 °F 77.0 °F 89% 29.83 in 6.2 mi East 10.4 mph - N/A   Scattered Clouds
6:05 PM 80.6 °F 87.1 °F 77.0 °F 89% 29.83 in 6.2 mi East 10.4 mph - N/A   Scattered Clouds
6:38 PM 80.6 °F 87.1 °F 77.0 °F 89% 29.86 in 6.2 mi East 9.2 mph - N/A   Mostly Cloudy
6:53 PM 80.6 °F 87.1 °F 77.0 °F 89% 29.86 in 6.2 mi East 9.2 mph - N/A   Mostly Cloudy
7:00 PM 80 °F - 77 °F 89% 29.82 in - ESE 9.2 mph - -  
7:00 PM 80.6 °F 87.1 °F 77.0 °F 89% 29.86 in 6.2 mi ESE 9.2 mph - N/A   Mostly Cloudy
8:00 PM 78.8 °F - 77.0 °F 94% 29.86 in 6.2 mi ESE 10.4 mph - N/A   Scattered Clouds
8:15 PM 78.8 °F - 77.0 °F 94% 29.86 in 6.2 mi ESE 10.4 mph - N/A   Mostly Cloudy
9:00 PM 79 °F - 76 °F 89% 29.85 in - ESE 10.4 mph - -  
9:00 PM 78.8 °F - 77.0 °F 94% 29.89 in 6.2 mi ESE 10.4 mph - N/A   Scattered Clouds
9:04 PM 78.8 °F - 77.0 °F 94% 29.89 in 6.2 mi ESE 10.4 mph - N/A   Scattered Clouds
9:22 PM 78.8 °F - 77.0 °F 94% 29.89 in 6.2 mi ESE 10.4 mph - N/A   Mostly Cloudy
10:00 PM 79 °F - 77 °F 92% 29.85 in - ESE 10.4 mph - -  
10:00 PM 78.8 °F - 77.0 °F 94% 29.89 in 6.2 mi ESE 10.4 mph - N/A   Mostly Cloudy
11:00 PM 78.8 °F - 77.0 °F 94% 29.89 in 6.2 mi ESE 11.5 mph - N/A   Overcast